DW8873 Weather Reports


Display with metric or nautical units.
time (UTC)temp
F
wind
direction
speed
MPH
gust
MPH
rain 1hr
in
rain 24hr
in
rain mn
in
humidity
%
barometer
mb
20260507090328 55 240 3.0 7.0 0.00 0.00 0.00 43 1017.2
20260507085254 55 257 3.0 4.0 0.00 0.00 0.00 42 1017.2
20260507084253 56 272 2.0 8.0 0.00 0.00 0.00 42 1016.9
20260507083251 56 264 3.0 12.0 0.00 0.00 0.00 41 1016.9
20260507082250 56 269 4.0 12.0 0.00 0.00 0.00 40 1016.9
20260507081248 56 278 3.0 10.0 0.00 0.00 0.00 39 1016.6
20260507080247 56 306 2.0 7.0 0.00 0.00 0.00 39 1016.6
20260507075246 56 272 2.0 7.0 0.00 0.00 0.00 39 1016.2
20260507074244 57 229 3.0 10.0 0.00 0.00 0.00 38 1015.9
20260507073243 57 256 3.0 10.0 0.00 0.00 0.00 39 1015.9
20260507072241 57 236 3.0 14.0 0.00 0.00 0.00 39 1015.9
20260507071240 57 271 2.0 14.0 0.00 0.00 0.00 40 1015.6
20260507070239 58 239 3.0 16.0 0.00 0.00 0.00 40 1015.6
20260507065238 58 272 2.0 16.0 0.00 0.00 0.00 39 1015.2
20260507064205 58 277 3.0 15.0 0.00 0.00 0.00 40 1015.2
20260507063203 59 267 2.0 11.0 0.00 0.00 0.00 41 1015.2
20260507062202 59 248 2.0 13.0 0.00 0.00 0.00 40 1015.2
20260507061201 59 281 5.0 13.0 0.00 0.00 0.00 38 1014.9
20260507060159 60 254 4.0 16.0 0.00 0.00 0.00 36 1014.9
20260507055158 60 263 6.0 14.0 0.00 0.00 0.00 35 1014.6
20260507054125 60 252 4.0 14.0 0.00 0.00 0.00 34 1014.9
20260507053124 60 261 4.0 11.0 0.00 0.00 0.00 34 1014.6
20260507052122 61 286 4.0 14.0 0.00 0.00 0.00 34 1014.2
20260507051120 61 252 4.0 14.0 0.00 0.00 0.00 33 1014.2
20260507050119 61 274 4.0 14.0 0.00 0.00 0.00 32 1014.2
20260507045118 62 252 4.0 14.0 0.00 0.00 0.00 32 1014.2
20260507044116 63 276 3.0 16.0 0.00 0.00 0.00 32 1013.9
20260507043114 63 268 5.0 17.0 0.00 0.00 0.00 33 1013.9
20260507042113 63 257 5.0 17.0 0.00 0.00 0.00 31 1013.9
20260507041111 63 284 4.0 16.0 0.00 0.00 0.00 32 1013.6
20260507040039 63 286 2.0 17.0 0.00 0.00 0.00 32 1013.6
20260507035037 64 267 3.0 13.0 0.00 0.00 0.00 31 1013.6
20260507034036 64 271 5.0 13.0 0.00 0.00 0.00 31 1013.2
20260507033035 64 274 3.0 14.0 0.00 0.00 0.00 30 1013.2
20260507032033 64 231 5.0 15.0 0.00 0.00 0.00 29 1013.2
20260507030858 64 262 6.0 14.0 0.00 0.00 0.00 29 1013.2
20260507025857 64 270 4.0 14.0 0.00 0.00 0.00 28 1013.2
20260507024855 64 252 3.0 16.0 0.00 0.00 0.00 30 1013.2
20260507023854 64 274 4.0 16.0 0.00 0.00 0.00 29 1013.2
20260507022821 64 259 3.0 11.0 0.00 0.00 0.00 30 1013.6
20260507021820 64 275 3.0 13.0 0.00 0.00 0.00 32 1013.2
20260507020818 64 257 4.0 11.0 0.00 0.00 0.00 32 1013.2
20260507015817 63 233 3.0 12.0 0.00 0.00 0.00 33 1013.2
20260507014815 62 298 5.0 12.0 0.00 0.00 0.00 34 1013.6
20260507013814 60 263 3.0 12.0 0.00 0.00 0.00 45 1013.6
20260507012812 59 284 2.0 12.0 0.00 0.00 0.00 52 1013.6
20260507011811 59 264 2.0 11.0 0.00 0.00 0.00 55 1013.6
20260507010738 59 273 4.0 12.0 0.00 0.00 0.00 54 1013.6
20260507005736 61 274 2.0 15.0 0.00 0.00 0.00 53 1013.9
20260507004735 66 261 4.0 15.0 0.00 0.00 0.00 48 1013.6
20260507003733 67 84 0.0 0.0 0.00 0.00 0.00 53 1013.3
20260507002731 66 256 0.0 0.0 0.00 0.00 0.00 52 1013.3
20260507001729 66 335 0.0 0.0 0.00 0.00 0.00 54 1013.3
20260507000656 67 289 0.0 4.0 0.00 0.00 0.00 52 1013.3
20260506235655 67 306 0.0 4.0 0.00 0.00 0.00 52 1013.3
20260506234653 68 294 2.0 6.0 0.00 0.00 0.00 52 1013.3
20260506233651 68 340 2.0 6.0 0.00 0.00 0.00 52 1013.3
20260506232650 67 25 1.0 5.0 0.00 0.00 0.00 55 1013.3
20260506231546 67 15 1.0 6.0 0.00 0.00 0.00 56 1013.3
20260506230545 67 24 2.0 3.0 0.00 0.00 0.00 56 1013.3
20260506225543 66 337 1.0 3.0 0.00 0.00 0.00 60 1013.3
20260506224542 65 337 1.0 5.0 0.00 0.00 0.00 61 1013.3
20260506223540 65 34 1.0 3.0 0.00 0.00 0.00 62 1013.3
20260506222539 63 343 1.0 2.0 0.00 0.00 0.00 66 1013.3
20260506221537 62 343 1.0 2.0 0.00 0.00 0.00 70 1013.3
20260506220536 60 343 1.0 2.0 0.00 0.00 0.00 74 1013.3
20260506215535 58 343 1.0 2.0 0.00 0.00 0.00 76 1013.2
20260506214533 56 343 1.0 2.0 0.00 0.00 0.00 82 1012.9
20260506213531 55 343 0.0 2.0 0.00 0.00 0.00 86 1012.9
20260506212529 54 343 0.0 2.0 0.00 0.00 0.00 88 1012.9
20260506211528 52 343 1.0 2.0 0.00 0.00 0.00 91 1012.9
20260506210526 51 343 0.0 1.0 0.00 0.00 0.00 90 1012.9
20260506205524 51 343 1.0 1.0 0.00 0.00 0.00 89 1012.9
20260506204523 51 343 0.0 2.0 0.00 0.00 0.00 89 1012.9
20260506203522 51 343 0.0 2.0 0.00 0.00 0.00 90 1012.5
20260506202520 52 343 0.0 1.0 0.00 0.00 0.00 89 1012.6
20260506201448 52 343 0.0 2.0 0.00 0.00 0.00 89 1012.6
20260506200446 52 343 1.0 2.0 0.00 0.00 0.00 89 1012.6
20260506195413 52 343 1.0 2.0 0.00 0.00 0.00 89 1012.6
20260506194411 51 343 0.0 1.0 0.00 0.00 0.00 90 1012.9
20260506193410 52 343 1.0 1.0 0.00 0.00 0.00 90 1012.9
20260506192408 52 343 0.0 1.0 0.00 0.00 0.00 91 1012.9
20260506191406 52 343 0.0 1.0 0.00 0.00 0.00 92 1012.6
20260506190405 52 343 1.0 1.0 0.00 0.00 0.00 92 1012.6
20260506185403 52 343 0.0 1.0 0.00 0.00 0.00 92 1012.2
20260506184401 53 343 0.0 0.0 0.00 0.00 0.00 93 1012.2
20260506183400 53 343 0.0 0.0 0.00 0.00 0.00 93 1012.2
20260506182358 53 343 0.0 1.0 0.00 0.00 0.00 93 1012.2
20260506181357 54 343 0.0 1.0 0.00 0.00 0.00 93 1012.2
20260506180356 54 343 0.0 0.0 0.00 0.00 0.00 93 1012.2
20260506175323 54 343 0.0 0.0 0.00 0.00 0.00 93 1012.2
20260506174321 54 343 0.0 0.0 0.00 0.00 0.00 93 1012.2
20260506173319 55 343 0.0 0.0 0.00 0.00 0.00 94 1012.2
20260506172317 55 343 0.0 1.0 0.00 0.00 0.00 93 1012.6
20260506171315 55 343 0.0 1.0 0.00 0.00 0.00 93 1012.6
20260506170314 55 343 0.0 0.0 0.00 0.00 0.00 93 1012.6
20260506165241 56 343 0.0 1.0 0.00 0.00 0.00 93 1012.6
20260506164240 56 343 0.0 1.0 0.00 0.00 0.00 93 1012.6
20260506163238 56 343 0.0 2.0 0.00 0.00 0.00 93 1012.9
20260506162236 56 343 1.0 2.0 0.00 0.00 0.00 93 1012.9
20260506161235 56 343 0.0 0.0 0.00 0.00 0.00 93 1012.9
20260506160202 57 343 0.0 0.0 0.00 0.00 0.00 93 1013.3
20260506155201 57 343 0.0 0.0 0.00 0.00 0.00 93 1013.3
20260506154159 57 343 0.0 0.0 0.00 0.00 0.00 93 1013.3
20260506153157 58 343 0.0 0.0 0.00 0.00 0.00 93 1013.3
20260506152155 58 343 0.0 0.0 0.00 0.00 0.00 93 1013.3
20260506151153 58 343 0.0 0.0 0.00 0.00 0.00 93 1013.6
20260506150152 58 343 0.0 0.0 0.00 0.00 0.00 92 1013.6
20260506145048 58 343 0.0 0.0 0.00 0.00 0.00 92 1013.6
20260506144015 59 343 0.0 0.0 0.00 0.00 0.00 92 1013.6
20260506142942 59 343 0.0 0.0 0.00 0.00 0.00 92 1013.6
20260506141941 59 343 0.0 0.0 0.00 0.00 0.00 91 1013.6
20260506140939 59 343 0.0 0.0 0.00 0.00 0.00 91 1013.6
20260506135938 59 343 0.0 1.0 0.00 0.00 0.00 91 1013.6
20260506134936 60 343 0.0 3.0 0.00 0.00 0.00 91 1013.6
20260506133935 60 343 1.0 4.0 0.00 0.00 0.00 92 1013.6
20260506132934 60 343 1.0 2.0 0.00 0.00 0.00 92 1013.6
20260506131932 60 343 0.0 1.0 0.00 0.00 0.00 91 1014.0
20260506130900 60 343 0.0 2.0 0.00 0.00 0.00 91 1014.0
20260506125756 60 343 0.0 1.0 0.00 0.00 0.00 91 1014.0
20260506124754 60 343 1.0 1.0 0.00 0.00 0.00 91 1014.3
20260506123753 60 343 0.0 0.0 0.00 0.00 0.00 91 1014.3
20260506122752 60 343 0.0 1.0 0.00 0.00 0.00 90 1014.6
20260506121751 60 343 0.0 1.0 0.00 0.00 0.00 89 1014.6
20260506120749 61 343 0.0 3.0 0.00 0.00 0.00 89 1015.0
20260506115748 61 343 1.0 4.0 0.00 0.00 0.00 88 1015.0
20260506114746 61 343 2.0 4.0 0.00 0.00 0.00 89 1015.0
20260506113713 61 343 1.0 6.0 0.00 0.00 0.00 89 1015.0
20260506112712 61 343 1.0 6.0 0.00 0.00 0.00 88 1015.0
20260506111711 61 343 2.0 6.0 0.00 0.00 0.00 89 1015.0
20260506110709 61 348 2.0 5.0 0.00 0.00 0.00 88 1015.0
20260506105707 62 333 1.0 5.0 0.00 0.00 0.00 88 1015.3
20260506104706 62 345 2.0 5.0 0.00 0.00 0.00 87 1015.3
20260506103704 62 335 1.0 3.0 0.00 0.00 0.00 87 1015.3
20260506102703 63 335 1.0 3.0 0.00 0.00 0.00 86 1015.3
20260506101702 63 335 1.0 3.0 0.00 0.00 0.00 86 1015.3
20260506100700 63 334 1.0 3.0 0.00 0.00 0.00 86 1015.3
20260506095658 63 334 0.0 2.0 0.00 0.00 0.00 85 1015.3
20260506094657 63 334 1.0 3.0 0.00 0.00 0.00 85 1015.3
20260506093655 63 334 1.0 3.0 0.00 0.00 0.00 84 1015.3
20260506092654 64 334 1.0 2.0 0.00 0.00 0.00 83 1015.3
20260506091652 64 334 0.0 3.0 0.00 0.00 0.00 81 1015.3